Regional Weather Roundup
Issued by NWS

Home | Current Version | Previous Version | Graphics & Text | Print | Product List | Glossary On
Versions: 1 2 3 4 5 6 7 8 9 10 11 12 13 14 15 16 17 18 19 20 21 22 23 24 25 26 27 28 29 30 31 32 33 34 35 36 37 38 39 40 41 42 43 44 45 46 47 48 49 50
653
ASUS44 KMEG 262300
RWRTN
TENNESSEE HOURLY STATE WEATHER ROUNDUP
NATIONAL WEATHER SERVICE MEMPHIS TN
600 PM CDT FRI AUG 26 2016

TNZ002-004-019-021-049-052-054-088>092-270000-
WEST TENNESSEE

CITY           SKY/WX    TMP DP  RH WIND       PRES   REMARKS
MEMPHIS INTL   CLOUDY    77  72  84 NE10      30.07R
NWS MEMPHIS      N/A     74 N/A N/A MISG        N/A
JACKSON        CLOUDY    76  73  91 NW5       30.07S
DYERSBURG      CLOUDY    82  72  69 MISG      30.09  THUNDER
UNION CITY     MOSUNNY   73  73 100 NW8       30.07F
PARIS          MOSUNNY   81  79  94 W3        30.06S
LEXINGTON      PTSUNNY   79  73  83 S20       30.08R
$$

TNZ008-025-027-028-033-062-065-066-270000-
NORTH MIDDLE TENNESSEE

CITY           SKY/WX    TMP DP  RH WIND       PRES   REMARKS
NASHVILLE      CLOUDY    91  72  53 E7        30.04R HX  98
CLARKSVILLE    CLOUDY    88  76  67 N6        30.04R HX  99
COOKEVILLE     SUNNY     91  73  55 NE6       30.04S HX 100
CROSSVILLE     CLOUDY    84  71  65 E3        30.12R
$$

TNZ061-075-076-078-094-096-097-270000-
SOUTH MIDDLE TENNESSEE

CITY           SKY/WX    TMP DP  RH WIND       PRES   REMARKS
SHELBYVILLE    SUNNY     90  79  70 CALM      30.04R HX 105
$$

TNZ017-018-042-046-047-270000-
NORTHEAST TENNESSEE

CITY           SKY/WX    TMP DP  RH WIND       PRES   REMARKS
TRI CITIES     MOSUNNY   90  69  50 N5        30.10F HX  94
$$

TNZ012-013-036-069-073-074-270000-
CENTRAL EAST TENNESSEE

CITY           SKY/WX    TMP DP  RH WIND       PRES   REMARKS
KNOXVILLE      MOSUNNY   92  65  40 NE13      30.03S HX  94
OAK RIDGE      SUNNY     92  69  47 CALM      30.06S HX  97
GATLINBURG       N/A     90  68  48 E7        30.04S HX  93
$$

TNZ083-085-099-270000-
SOUTHEAST TENNESSEE

CITY           SKY/WX    TMP DP  RH WIND       PRES   REMARKS
CHATTANOOGA    CLOUDY    80  72  76 E5        30.04R
$$

SKY/WX REPORTED AS FAIR MEANS FEW OR NO CLOUDS BELOW
12 THOUSAND FEET.





USA.gov is the U.S. government's official web portal to all federal, state and local government web resources and services.